| time (UTC) | temp C | wind direction | speed KPH | gust KPH | rain 1hr cm | rain 24hr cm | rain mn cm | humidity % | barometer mb |
| 20260904120229 | 24 | 95 | 20.9 | 32.2 | 0.00 | 0.15 | 0.00 | 85 | 1013.3 |
| 20260904115728 | 24 | 80 | 20.9 | 32.2 | 0.00 | 0.15 | 0.00 | 82 | 1013.2 |
| 20260904115228 | 25 | 156 | 9.7 | 33.8 | 0.00 | 0.15 | 0.00 | 80 | 1013.0 |
| 20260904114728 | 25 | 110 | 14.5 | 33.8 | 0.00 | 0.15 | 0.00 | 80 | 1013.2 |
| 20260904114227 | 25 | 68 | 19.3 | 30.6 | 0.00 | 0.15 | 0.00 | 79 | 1013.2 |
| 20260904113727 | 25 | 76 | 12.9 | 30.6 | 0.00 | 0.15 | 0.00 | 80 | 1013.3 |
| 20260904113227 | 24 | 132 | 14.5 | 30.6 | 0.00 | 0.15 | 0.00 | 81 | 1013.1 |
| 20260904112727 | 24 | 66 | 20.9 | 30.6 | 0.00 | 0.15 | 0.00 | 81 | 1013.2 |
| 20260904112228 | 24 | 121 | 14.5 | 27.4 | 0.00 | 0.15 | 0.00 | 81 | 1013.2 |
| 20260904111728 | 24 | 45 | 19.3 | 25.7 | 0.00 | 0.15 | 0.00 | 81 | 1013.3 |
| 20260904111228 | 24 | 96 | 14.5 | 25.7 | 0.00 | 0.15 | 0.00 | 81 | 1013.4 |
| 20260904110715 | 24 | 128 | 14.5 | 32.2 | 0.00 | 0.15 | 0.00 | 82 | 1013.4 |
| 20260904110215 | 23 | 119 | 9.7 | 40.2 | 0.00 | 0.15 | 0.00 | 82 | 1013.4 |
| 20260904105715 | 24 | 156 | 16.1 | 40.2 | 0.00 | 0.15 | 0.00 | 82 | 1013.4 |
| 20260904105216 | 24 | 85 | 19.3 | 41.8 | 0.00 | 0.15 | 0.00 | 83 | 1013.6 |
| 20260904104715 | 25 | 87 | 16.1 | 41.8 | 0.00 | 0.15 | 0.00 | 83 | 1013.6 |
| 20260904104216 | 25 | 90 | 12.9 | 37.0 | 0.00 | 0.15 | 0.00 | 79 | 1013.6 |
| 20260904103715 | 25 | 58 | 14.5 | 37.0 | 0.00 | 0.15 | 0.00 | 80 | 1013.5 |
| 20260904103203 | 25 | 74 | 17.7 | 38.6 | 0.00 | 0.15 | 0.00 | 78 | 1013.8 |
| 20260904102703 | 25 | 156 | 9.7 | 38.6 | 0.00 | 0.15 | 0.00 | 78 | 1013.7 |
| 20260904102203 | 25 | 91 | 8.0 | 32.2 | 0.00 | 0.15 | 0.00 | 77 | 1013.9 |
| 20260904101934 | 25 | 88 | 14.5 | 30.6 | 0.00 | 0.15 | 0.00 | 78 | 1014.0 |
| 20260904101435 | 25 | 86 | 17.7 | 30.6 | 0.00 | 0.15 | 0.00 | 78 | 1013.7 |
| 20260904100703 | 25 | 99 | 20.9 | 30.6 | 0.00 | 0.15 | 0.00 | 78 | 1013.7 |
| 20260904100203 | 25 | 109 | 12.9 | 30.6 | 0.00 | 0.15 | 0.00 | 79 | 1014.1 |
| 20260904095703 | 25 | 119 | 12.9 | 37.0 | 0.00 | 0.15 | 0.15 | 79 | 1013.9 |
| 20260904095151 | 25 | 90 | 11.3 | 37.0 | 0.00 | 0.15 | 0.15 | 78 | 1014.1 |
| 20260904094652 | 25 | 101 | 14.5 | 30.6 | 0.00 | 0.15 | 0.15 | 78 | 1014.2 |
| 20260904094153 | 25 | 104 | 17.7 | 37.0 | 0.00 | 0.15 | 0.15 | 79 | 1014.1 |
| 20260904093658 | 25 | 79 | 12.9 | 27.4 | 0.00 | 0.15 | 0.15 | 79 | 1014.2 |
| 20260904093652 | 25 | 69 | 16.1 | 37.0 | 0.00 | 0.15 | 0.15 | 79 | 1014.1 |
| 20260904092924 | 25 | 70 | 17.7 | 37.0 | 0.00 | 0.15 | 0.15 | 78 | 1014.3 |
| 20260904092152 | 25 | 89 | 20.9 | 37.0 | 0.00 | 0.15 | 0.15 | 79 | 1014.2 |
| 20260904091639 | 25 | 87 | 12.9 | 32.2 | 0.00 | 0.15 | 0.15 | 81 | 1014.2 |
| 20260904091139 | 25 | 89 | 20.9 | 30.6 | 0.00 | 0.15 | 0.15 | 80 | 1014.4 |
| 20260904090641 | 25 | 119 | 9.7 | 30.6 | 0.00 | 0.15 | 0.15 | 80 | 1014.3 |
| 20260904090140 | 25 | 91 | 11.3 | 33.8 | 0.00 | 0.15 | 0.15 | 80 | 1014.4 |
| 20260904085641 | 25 | 80 | 22.5 | 38.6 | 0.00 | 0.15 | 0.15 | 79 | 1014.5 |
| 20260904085140 | 25 | 132 | 12.9 | 38.6 | 0.00 | 0.15 | 0.15 | 79 | 1014.2 |
| 20260904084911 | 25 | 85 | 14.5 | 33.8 | 0.03 | 0.15 | 0.15 | 79 | 1014.5 |
| 20260904084127 | 25 | 94 | 17.7 | 38.6 | 0.10 | 0.15 | 0.15 | 80 | 1014.5 |
| 20260904083627 | 25 | 72 | 14.5 | 33.8 | 0.10 | 0.15 | 0.15 | 79 | 1014.4 |
| 20260904083127 | 25 | 74 | 16.1 | 33.8 | 0.10 | 0.15 | 0.15 | 80 | 1014.7 |
| 20260904082629 | 25 | 76 | 12.9 | 32.2 | 0.10 | 0.15 | 0.15 | 79 | 1014.8 |
| 20260904082128 | 24 | 101 | 20.9 | 32.2 | 0.10 | 0.15 | 0.15 | 80 | 1014.6 |
| 20260904081627 | 24 | 99 | 8.0 | 30.6 | 0.10 | 0.15 | 0.15 | 82 | 1014.9 |
| 20260904081129 | 24 | 79 | 20.9 | 30.6 | 0.10 | 0.15 | 0.15 | 82 | 1015.1 |
| 20260904080629 | 24 | 92 | 9.7 | 32.2 | 0.10 | 0.13 | 0.13 | 84 | 1014.8 |
| 20260904080358 | 24 | 116 | 11.3 | 32.2 | 0.10 | 0.13 | 0.13 | 85 | 1014.9 |
| 20260904075628 | 24 | 88 | 6.4 | 30.6 | 0.10 | 0.13 | 0.13 | 85 | 1015.0 |
| 20260904075128 | 24 | 89 | 8.0 | 37.0 | 0.10 | 0.13 | 0.13 | 84 | 1015.0 |
| 20260904074627 | 25 | 95 | 19.3 | 37.0 | 0.10 | 0.13 | 0.13 | 83 | 1015.1 |
| 20260904074127 | 25 | 47 | 16.1 | 30.6 | 0.00 | 0.03 | 0.03 | 80 | 1014.9 |
| 20260904073628 | 25 | 105 | 12.9 | 30.6 | 0.00 | 0.03 | 0.03 | 79 | 1014.9 |
| 20260904073128 | 25 | 100 | 9.7 | 30.6 | 0.00 | 0.03 | 0.03 | 78 | 1014.7 |
| 20260904072627 | 25 | 73 | 9.7 | 30.6 | 0.00 | 0.03 | 0.03 | 77 | 1014.8 |
| 20260904072129 | 25 | 79 | 9.7 | 25.7 | 0.00 | 0.03 | 0.03 | 79 | 1014.9 |
| 20260904071627 | 25 | 90 | 16.1 | 25.7 | 0.00 | 0.03 | 0.03 | 79 | 1014.7 |
| 20260904071128 | 25 | 186 | 8.0 | 33.8 | 0.00 | 0.03 | 0.03 | 80 | 1014.4 |
| 20260904070628 | 25 | 39 | 14.5 | 33.8 | 0.00 | 0.03 | 0.03 | 79 | 1014.4 |
| 20260904070127 | 25 | 96 | 19.3 | 30.6 | 0.00 | 0.03 | 0.03 | 77 | 1014.4 |
| 20260904065629 | 25 | 121 | 11.3 | 30.6 | 0.00 | 0.03 | 0.03 | 76 | 1014.3 |
| 20260904065128 | 25 | 46 | 9.7 | 27.4 | 0.00 | 0.03 | 0.03 | 76 | 1014.2 |
| 20260904064627 | 25 | 96 | 12.9 | 33.8 | 0.00 | 0.03 | 0.03 | 76 | 1014.2 |
| 20260904064130 | 25 | 112 | 19.3 | 32.2 | 0.00 | 0.03 | 0.03 | 76 | 1014.1 |
| 20260904063628 | 25 | 87 | 16.1 | 30.6 | 0.00 | 0.03 | 0.03 | 76 | 1014.2 |
| 20260904063128 | 25 | 92 | 17.7 | 30.6 | 0.00 | 0.03 | 0.03 | 76 | 1014.1 |
| 20260904062859 | 25 | 111 | 16.1 | 32.2 | 0.00 | 0.03 | 0.03 | 75 | 1014.2 |
| 20260904062359 | 25 | 101 | 16.1 | 32.2 | 0.00 | 0.03 | 0.03 | 76 | 1014.3 |
| 20260904061900 | 26 | 126 | 14.5 | 30.6 | 0.00 | 0.03 | 0.03 | 77 | 1014.1 |
| 20260904061736 | 25 | 103 | 14.5 | 30.6 | 0.00 | 0.03 | 0.03 | 76 | 1014.4 |
| 20260904060627 | 25 | 90 | 14.5 | 33.8 | 0.00 | 0.03 | 0.03 | 76 | 1014.4 |
| 20260904060127 | 25 | 70 | 17.7 | 33.8 | 0.00 | 0.03 | 0.03 | 76 | 1014.1 |
| 20260904055858 | 26 | 100 | 11.3 | 27.4 | 0.00 | 0.03 | 0.03 | 77 | 1014.0 |
| 20260904055116 | 26 | 120 | 16.1 | 33.8 | 0.00 | 0.03 | 0.03 | 77 | 1014.0 |
| 20260904054846 | 25 | 63 | 14.5 | 33.8 | 0.00 | 0.03 | 0.03 | 77 | 1014.1 |
| 20260904054115 | 26 | 41 | 9.7 | 32.2 | 0.00 | 0.03 | 0.03 | 77 | 1013.8 |
| 20260904053616 | 26 | 123 | 14.5 | 32.2 | 0.00 | 0.03 | 0.03 | 78 | 1013.8 |
| 20260904053117 | 26 | 107 | 14.5 | 33.8 | 0.00 | 0.03 | 0.03 | 77 | 1013.7 |
| 20260904052615 | 26 | 96 | 9.7 | 33.8 | 0.00 | 0.03 | 0.03 | 77 | 1013.9 |
| 20260904052116 | 26 | 75 | 16.1 | 32.2 | 0.00 | 0.03 | 0.03 | 77 | 1013.7 |
| 20260904051615 | 26 | 84 | 14.5 | 32.2 | 0.00 | 0.03 | 0.03 | 75 | 1013.6 |
| 20260904051347 | 26 | 58 | 16.1 | 33.8 | 0.00 | 0.03 | 0.03 | 75 | 1013.4 |
| 20260904050616 | 26 | 128 | 14.5 | 33.8 | 0.00 | 0.03 | 0.03 | 76 | 1013.4 |
| 20260904050116 | 26 | 126 | 22.5 | 30.6 | 0.00 | 0.03 | 0.03 | 75 | 1013.7 |
| 20260904045846 | 26 | 84 | 14.5 | 33.8 | 0.00 | 0.03 | 0.03 | 77 | 1013.5 |
| 20260904045336 | 26 | 99 | 8.0 | 33.8 | 0.00 | 0.03 | 0.03 | 76 | 1013.4 |
| 20260904044834 | 26 | 49 | 17.7 | 30.6 | 0.00 | 0.03 | 0.03 | 76 | 1013.4 |
| 20260904044104 | 26 | 99 | 12.9 | 30.6 | 0.00 | 0.03 | 0.03 | 76 | 1013.2 |
| 20260904043835 | 26 | 71 | 16.1 | 33.8 | 0.00 | 0.03 | 0.03 | 76 | 1013.5 |
| 20260904043105 | 25 | 105 | 12.9 | 33.8 | 0.00 | 0.03 | 0.03 | 77 | 1013.3 |
| 20260904042604 | 25 | 72 | 16.1 | 32.2 | 0.00 | 0.03 | 0.03 | 79 | 1013.2 |
| 20260904042104 | 25 | 58 | 12.9 | 30.6 | 0.00 | 0.03 | 0.03 | 80 | 1013.1 |
| 20260904041557 | 26 | 68 | 11.3 | 33.8 | 0.00 | 0.03 | 0.03 | 78 | 1013.0 |
| 20260904041552 | 26 | 111 | 20.9 | 30.6 | 0.00 | 0.03 | 0.03 | 79 | 1013.2 |
| 20260904040552 | 26 | 26 | 17.7 | 33.8 | 0.00 | 0.03 | 0.03 | 78 | 1013.1 |
| 20260904040052 | 26 | 54 | 20.9 | 33.8 | 0.00 | 0.03 | 0.03 | 78 | 1013.1 |
| 20260904035551 | 26 | 54 | 14.5 | 30.6 | 0.00 | 0.03 | 0.03 | 78 | 1012.9 |
| 20260904035051 | 26 | 102 | 20.9 | 38.6 | 0.00 | 0.03 | 0.03 | 77 | 1012.8 |
| 20260904034552 | 26 | 116 | 25.7 | 38.6 | 0.00 | 0.03 | 0.03 | 76 | 1012.9 |
| 20260904034040 | 26 | 95 | 17.7 | 32.2 | 0.00 | 0.03 | 0.03 | 75 | 1012.8 |
| 20260904033540 | 26 | 119 | 8.0 | 37.0 | 0.00 | 0.03 | 0.03 | 76 | 1012.6 |
| 20260904033040 | 25 | 119 | 25.7 | 37.0 | 0.00 | 0.03 | 0.03 | 77 | 1012.6 |
| 20260904032541 | 25 | 100 | 14.5 | 38.6 | 0.00 | 0.03 | 0.03 | 79 | 1012.7 |
| 20260904032039 | 26 | 39 | 16.1 | 38.6 | 0.00 | 0.03 | 0.03 | 80 | 1013.0 |
| 20260904031540 | 26 | 103 | 20.9 | 32.2 | 0.00 | 0.03 | 0.03 | 79 | 1012.9 |
| 20260904031041 | 25 | 102 | 19.3 | 38.6 | 0.00 | 0.03 | 0.03 | 79 | 1013.1 |
| 20260904030758 | 25 | 92 | 16.1 | 38.6 | 0.00 | 0.03 | 0.03 | 79 | 1012.8 |
| 20260904030027 | 25 | 76 | 19.3 | 32.2 | 0.00 | 0.03 | 0.03 | 80 | 1012.9 |
| 20260904025528 | 25 | 97 | 12.9 | 37.0 | 0.00 | 0.03 | 0.03 | 80 | 1012.9 |
| 20260904025028 | 25 | 81 | 20.9 | 37.0 | 0.00 | 0.03 | 0.03 | 79 | 1013.0 |
| 20260904024528 | 25 | 79 | 14.5 | 38.6 | 0.00 | 0.03 | 0.03 | 80 | 1013.2 |
| 20260904024259 | 25 | 115 | 16.1 | 38.6 | 0.00 | 0.03 | 0.03 | 80 | 1012.6 |
| 20260904023527 | 25 | 108 | 14.5 | 37.0 | 0.00 | 0.03 | 0.03 | 82 | 1012.9 |
| 20260904023027 | 25 | 98 | 6.4 | 27.4 | 0.00 | 0.03 | 0.03 | 85 | 1013.0 |
| 20260904022528 | 25 | 125 | 9.7 | 17.7 | 0.00 | 0.03 | 0.03 | 87 | 1013.2 |
| 20260904022028 | 24 | 136 | 9.7 | 17.7 | 0.00 | 0.03 | 0.03 | 88 | 1013.3 |
| 20260904021528 | 24 | 103 | 6.4 | 30.6 | 0.00 | 0.03 | 0.03 | 88 | 1013.5 |
| 20260904021028 | 24 | 164 | 9.7 | 30.6 | 0.00 | 0.03 | 0.03 | 88 | 1013.4 |
| 20260904020759 | 24 | 102 | 9.7 | 25.7 | 0.00 | 0.03 | 0.03 | 88 | 1013.5 |
| 20260904020027 | 24 | 128 | 16.1 | 32.2 | 0.00 | 0.03 | 0.03 | 88 | 1013.5 |
| 20260904015541 | 25 | 83 | 16.1 | 33.8 | 0.00 | 0.03 | 0.03 | 86 | 1013.7 |
| 20260904015535 | 24 | 118 | 12.9 | 32.2 | 0.00 | 0.03 | 0.03 | 87 | 1013.7 |
| 20260904015529 | 24 | 93 | 9.7 | 32.2 | 0.00 | 0.03 | 0.03 | 87 | 1013.8 |
| 20260903182004 | 26 | 146 | 20.9 | 38.6 | 0.00 | 0.15 | 0.03 | 81 | 1015.5 |
| 20260903181504 | 25 | 81 | 20.9 | 33.8 | 0.00 | 0.28 | 0.03 | 80 | 1015.6 |
| 20260903181004 | 25 | 88 | 16.1 | 33.8 | 0.00 | 0.38 | 0.03 | 81 | 1015.4 |
| 20260903180736 | 25 | 59 | 14.5 | 37.0 | 0.00 | 0.51 | 0.03 | 81 | 1015.4 |
| 20260903175951 | 25 | 92 | 27.4 | 37.0 | 0.00 | 0.66 | 0.03 | 80 | 1015.6 |
| 20260903175451 | 25 | 92 | 12.9 | 32.2 | 0.00 | 0.81 | 0.03 | 81 | 1015.5 |
| 20260903175222 | 25 | 87 | 16.1 | 32.2 | 0.00 | 1.04 | 0.03 | 82 | 1015.5 |
| 20260903174452 | 25 | 76 | 16.1 | 38.6 | 0.00 | 1.12 | 0.03 | 85 | 1015.5 |
| 20260903173952 | 24 | 68 | 11.3 | 38.6 | 0.00 | 1.14 | 0.03 | 85 | 1015.4 |
| 20260903173723 | 24 | 91 | 24.1 | 33.8 | 0.00 | 1.17 | 0.03 | 85 | 1015.7 |
| 20260903172951 | 25 | 98 | 17.7 | 33.8 | 0.00 | 1.19 | 0.03 | 85 | 1015.5 |
| 20260903172439 | 25 | 63 | 17.7 | 33.8 | 0.00 | 1.19 | 0.03 | 84 | 1015.5 |
| 20260903171939 | 25 | 77 | 14.5 | 30.6 | 0.00 | 1.19 | 0.03 | 83 | 1015.3 |
| 20260903171440 | 24 | 96 | 4.8 | 25.7 | 0.00 | 1.19 | 0.03 | 84 | 1015.4 |
| 20260903170940 | 24 | 135 | 8.0 | 25.7 | 0.03 | 1.19 | 0.03 | 85 | 1015.2 |
| 20260903170711 | 24 | 64 | 12.9 | 37.0 | 0.03 | 1.19 | 0.03 | 86 | 1015.3 |
| 20260903165940 | 24 | 128 | 19.3 | 37.0 | 0.03 | 1.19 | 0.03 | 86 | 1015.3 |
| 20260903165440 | 24 | 132 | 16.1 | 33.8 | 0.03 | 1.19 | 0.03 | 85 | 1015.0 |
| 20260903164928 | 24 | 112 | 6.4 | 32.2 | 0.03 | 1.19 | 0.03 | 85 | 1014.9 |
| 20260903164427 | 24 | 110 | 14.5 | 32.2 | 0.03 | 1.19 | 0.03 | 86 | 1014.9 |
| 20260903163927 | 23 | 116 | 20.9 | 27.4 | 0.03 | 1.19 | 0.03 | 87 | 1015.1 |
| 20260903163427 | 23 | 97 | 8.0 | 27.4 | 0.03 | 1.19 | 0.03 | 88 | 1014.9 |
| 20260903163159 | 23 | 93 | 11.3 | 24.1 | 0.03 | 1.19 | 0.03 | 88 | 1015.3 |
| 20260903162428 | 23 | 99 | 6.4 | 24.1 | 0.03 | 1.19 | 0.03 | 87 | 1015.2 |
| 20260903161928 | 24 | 126 | 9.7 | 27.4 | 0.03 | 1.19 | 0.03 | 86 | 1015.1 |
| 20260903161658 | 24 | 89 | 17.7 | 30.6 | 0.00 | 1.17 | 0.03 | 84 | 1015.1 |
| 20260903160927 | 25 | 115 | 8.0 | 30.6 | 0.00 | 1.17 | 0.00 | 83 | 1015.0 |
| 20260903160428 | 25 | 92 | 11.3 | 30.6 | 0.00 | 1.17 | 0.00 | 82 | 1014.9 |
| 20260903155927 | 25 | 124 | 19.3 | 27.4 | 0.00 | 1.17 | 0.00 | 82 | 1015.0 |
| 20260903155427 | 25 | 49 | 16.1 | 30.6 | 0.00 | 1.17 | 0.00 | 82 | 1015.0 |
| 20260903154928 | 25 | 89 | 20.9 | 30.6 | 0.00 | 1.17 | 0.00 | 81 | 1014.7 |
| 20260903154428 | 25 | 50 | 12.9 | 30.6 | 0.00 | 1.17 | 0.00 | 81 | 1014.5 |
| 20260903153928 | 25 | 135 | 16.1 | 30.6 | 0.00 | 1.17 | 0.00 | 82 | 1014.6 |
| 20260903153658 | 24 | 125 | 11.3 | 25.7 | 0.00 | 1.17 | 0.00 | 84 | 1014.8 |
| 20260903152928 | 24 | 74 | 14.5 | 33.8 | 0.00 | 1.19 | 0.00 | 85 | 1014.9 |
| 20260903152428 | 24 | 50 | 12.9 | 33.8 | 0.00 | 1.24 | 0.00 | 86 | 1015.0 |
| 20260903151928 | 24 | 86 | 17.7 | 38.6 | 0.00 | 1.27 | 0.00 | 86 | 1014.8 |
| 20260903151659 | 25 | 57 | 17.7 | 40.2 | 0.00 | 1.27 | 0.00 | 86 | 1014.9 |
| 20260903150929 | 25 | 69 | 22.5 | 40.2 | 0.00 | 1.27 | 0.00 | 84 | 1014.9 |
| 20260903150428 | 25 | 56 | 17.7 | 37.0 | 0.00 | 1.27 | 0.00 | 85 | 1014.6 |
| 20260903145927 | 24 | 68 | 16.1 | 32.2 | 0.00 | 1.27 | 0.00 | 85 | 1014.7 |
| 20260903145427 | 24 | 37 | 17.7 | 25.7 | 0.00 | 1.27 | 0.00 | 85 | 1014.7 |
| 20260903144928 | 24 | 77 | 11.3 | 40.2 | 0.00 | 1.27 | 0.00 | 84 | 1014.6 |
| 20260903144428 | 24 | 114 | 11.3 | 49.9 | 0.00 | 1.27 | 0.00 | 82 | 1015.0 |
| 20260903143928 | 25 | 76 | 17.7 | 49.9 | 0.00 | 1.24 | 0.00 | 82 | 1014.6 |
| 20260903143427 | 25 | 90 | 19.3 | 32.2 | 0.00 | 1.27 | 0.00 | 80 | 1014.8 |
| 20260903142928 | 25 | 70 | 17.7 | 37.0 | 0.00 | 1.27 | 0.00 | 80 | 1014.6 |
| 20260903142428 | 25 | 54 | 17.7 | 37.0 | 0.00 | 1.27 | 0.00 | 80 | 1014.5 |
| 20260903141929 | 25 | 94 | 14.5 | 30.6 | 0.00 | 1.27 | 0.00 | 81 | 1014.6 |
| 20260903141428 | 25 | 45 | 11.3 | 30.6 | 0.00 | 1.27 | 0.00 | 80 | 1014.4 |
| 20260903141201 | 25 | 71 | 9.7 | 30.6 | 0.00 | 1.30 | 0.00 | 81 | 1014.6 |
| 20260903140430 | 25 | 96 | 19.3 | 32.2 | 0.00 | 1.30 | 0.00 | 82 | 1014.5 |
| 20260903135928 | 25 | 85 | 20.9 | 32.2 | 0.00 | 1.30 | 0.00 | 82 | 1014.6 |
| 20260903135427 | 25 | 81 | 14.5 | 37.0 | 0.00 | 1.30 | 0.00 | 82 | 1014.4 |
| 20260903134929 | 25 | 59 | 24.1 | 32.2 | 0.00 | 1.30 | 0.00 | 82 | 1014.6 |
| 20260903134429 | 25 | 68 | 11.3 | 27.4 | 0.00 | 1.30 | 0.00 | 82 | 1014.6 |
| 20260903133928 | 25 | 93 | 12.9 | 37.0 | 0.00 | 1.30 | 0.00 | 82 | 1014.6 |
| 20260903133428 | 25 | 89 | 12.9 | 37.0 | 0.00 | 1.30 | 0.00 | 81 | 1014.4 |
| 20260903133158 | 25 | 126 | 17.7 | 32.2 | 0.00 | 1.30 | 0.00 | 80 | 1014.7 |
| 20260903132429 | 25 | 80 | 17.7 | 37.0 | 0.00 | 1.30 | 0.00 | 80 | 1014.6 |
| 20260903131928 | 25 | 85 | 20.9 | 37.0 | 0.00 | 1.30 | 0.00 | 80 | 1014.5 |
| 20260903131427 | 25 | 101 | 11.3 | 32.2 | 0.00 | 1.30 | 0.00 | 82 | 1014.4 |
| 20260903130927 | 25 | 87 | 19.3 | 32.2 | 0.00 | 1.30 | 0.00 | 81 | 1014.6 |
| 20260903130428 | 25 | 114 | 19.3 | 41.8 | 0.00 | 1.30 | 0.00 | 81 | 1014.7 |
| 20260903125928 | 25 | 66 | 11.3 | 41.8 | 0.00 | 1.30 | 0.00 | 82 | 1014.6 |
| 20260903125428 | 25 | 115 | 6.4 | 41.8 | 0.00 | 1.30 | 0.00 | 83 | 1014.5 |
| 20260903125159 | 25 | 126 | 16.1 | 41.8 | 0.00 | 1.30 | 0.00 | 82 | 1014.5 |
| 20260903124428 | 25 | 127 | 6.4 | 32.2 | 0.00 | 1.30 | 0.00 | 82 | 1014.6 |
| 20260903123929 | 25 | 92 | 19.3 | 32.2 | 0.00 | 1.30 | 0.00 | 82 | 1014.3 |
| 20260903123428 | 25 | 80 | 17.7 | 27.4 | 0.00 | 1.30 | 0.00 | 83 | 1014.4 |
| 20260903122927 | 25 | 93 | 12.9 | 32.2 | 0.00 | 1.30 | 0.00 | 83 | 1014.7 |
| 20260903122658 | 25 | 85 | 17.7 | 32.2 | 0.00 | 1.30 | 0.00 | 82 | 1014.5 |
| 20260903121927 | 25 | 105 | 19.3 | 30.6 | 0.00 | 1.30 | 0.00 | 80 | 1014.7 |
| 20260903121427 | 25 | 114 | 12.9 | 37.0 | 0.00 | 1.30 | 0.00 | 80 | 1014.7 |
| 20260903121158 | 25 | 95 | 12.9 | 37.0 | 0.00 | 1.30 | 0.00 | 81 | 1014.8 |
| 20260903120416 | 25 | 96 | 12.9 | 33.8 | 0.00 | 1.30 | 0.00 | 82 | 1014.9 |